Time,TemperatureF,DewpointF,PressureIn,WindDirection,WindDirectionDegrees,WindSpeedMPH,WindSpeedGustMPH,Humidity,HourlyPrecipIn,Conditions,Clouds,dailyrainin,SoftwareType,DateUTC
2013-03-29 00:03:00,40.0,28.0,30.25,North,0,0.0,0.0,63,0.00,,,0.00,,2013-03-29 04:03:00,
2013-03-29 00:13:00,40.0,28.0,30.25,North,0,0.0,0.0,63,0.00,,,0.00,,2013-03-29 04:13:00,
2013-03-29 00:23:00,38.0,28.0,30.26,North,0,0.0,0.0,66,0.00,,,0.00,,2013-03-29 04:23:00,
2013-03-29 00:33:00,36.0,28.0,30.26,North,0,0.0,0.0,72,0.00,,,0.00,,2013-03-29 04:33:00,
2013-03-29 00:43:00,36.0,28.0,30.26,North,0,0.0,0.0,72,0.00,,,0.00,,2013-03-29 04:43:00,
2013-03-29 00:52:00,36.0,28.0,30.26,North,0,0.0,0.0,73,0.00,,,0.00,,2013-03-29 04:52:00,
2013-03-29 01:03:00,35.0,28.0,30.26,North,0,0.0,0.0,76,0.00,,,0.00,,2013-03-29 05:03:00,
2013-03-29 01:12:00,35.0,28.0,30.26,North,0,0.0,0.0,76,0.00,,,0.00,,2013-03-29 05:12:00,
2013-03-29 01:23:00,34.0,27.0,30.27,North,0,0.0,0.0,75,0.00,,,0.00,,2013-03-29 05:23:00,
2013-03-29 01:33:00,33.0,26.0,30.27,North,0,0.0,0.0,76,0.00,,,0.00,,2013-03-29 05:33:00,
2013-03-29 01:43:00,33.0,26.0,30.27,North,0,0.0,0.0,76,0.00,,,0.00,,2013-03-29 05:43:00,
2013-03-29 01:52:00,33.0,27.0,30.27,North,0,0.0,0.0,78,0.00,,,0.00,,2013-03-29 05:52:00,
2013-03-29 02:02:00,33.0,28.0,30.27,North,0,0.0,0.0,80,0.00,,,0.00,,2013-03-29 06:02:00,
2013-03-29 02:12:00,33.0,28.0,30.27,North,0,0.0,0.0,80,0.00,,,0.00,,2013-03-29 06:12:00,
2013-03-29 02:23:00,32.0,27.0,30.27,North,0,0.0,0.0,80,0.00,,,0.00,,2013-03-29 06:23:00,
2013-03-29 02:32:00,31.0,26.0,30.27,North,0,0.0,0.0,81,0.00,,,0.00,,2013-03-29 06:32:00,
2013-03-29 02:42:00,31.0,26.0,30.27,North,0,0.0,0.0,81,0.00,,,0.00,,2013-03-29 06:42:00,
2013-03-29 02:52:00,31.0,26.0,30.26,North,0,0.0,0.0,82,0.00,,,0.00,,2013-03-29 06:52:00,
2013-03-29 03:03:00,30.0,25.0,30.26,North,0,0.0,0.0,83,0.00,,,0.00,,2013-03-29 07:03:00,
2013-03-29 03:12:00,30.0,25.0,30.26,North,0,0.0,0.0,83,0.00,,,0.00,,2013-03-29 07:12:00,
2013-03-29 03:22:00,30.0,26.0,30.26,North,0,0.0,0.0,84,0.00,,,0.00,,2013-03-29 07:22:00,
2013-03-29 03:32:00,30.0,26.0,30.26,North,0,0.0,0.0,85,0.00,,,0.00,,2013-03-29 07:32:00,
2013-03-29 03:42:00,30.0,26.0,30.26,North,0,0.0,0.0,85,0.00,,,0.00,,2013-03-29 07:42:00,
2013-03-29 03:52:00,30.0,26.0,30.26,North,0,0.0,0.0,86,0.00,,,0.00,,2013-03-29 07:52:00,
2013-03-29 04:02:00,30.0,27.0,30.26,North,0,0.0,0.0,87,0.00,,,0.00,,2013-03-29 08:02:00,
2013-03-29 04:12:00,30.0,27.0,30.26,North,0,0.0,0.0,87,0.00,,,0.00,,2013-03-29 08:12:00,
2013-03-29 04:22:00,29.0,26.0,30.26,North,0,0.0,0.0,87,0.00,,,0.00,,2013-03-29 08:22:00,
2013-03-29 04:32:00,29.0,26.0,30.26,North,0,0.0,0.0,88,0.00,,,0.00,,2013-03-29 08:32:00,
2013-03-29 04:42:00,29.0,26.0,30.26,North,0,0.0,0.0,88,0.00,,,0.00,,2013-03-29 08:42:00,
2013-03-29 04:52:00,29.0,26.0,30.26,North,0,0.0,0.0,88,0.00,,,0.00,,2013-03-29 08:52:00,
2013-03-29 05:02:00,28.0,25.0,30.26,North,0,0.0,0.0,89,0.00,,,0.00,,2013-03-29 09:02:00,
2013-03-29 05:13:00,28.0,25.0,30.26,North,0,0.0,0.0,89,0.00,,,0.00,,2013-03-29 09:13:00,
2013-03-29 05:22:00,29.0,26.0,30.26,North,0,0.0,0.0,90,0.00,,,0.00,,2013-03-29 09:22:00,
2013-03-29 05:33:00,29.0,26.0,30.26,North,0,0.0,0.0,90,0.00,,,0.00,,2013-03-29 09:33:00,
2013-03-29 05:43:00,29.0,26.0,30.26,North,0,0.0,0.0,90,0.00,,,0.00,,2013-03-29 09:43:00,
2013-03-29 05:52:00,29.0,26.0,30.26,North,0,0.0,0.0,90,0.00,,,0.00,,2013-03-29 09:52:00,
2013-03-29 06:03:00,28.0,25.0,30.26,North,0,0.0,0.0,90,0.00,,,0.00,,2013-03-29 10:03:00,
2013-03-29 06:12:00,28.0,25.0,30.26,North,0,0.0,0.0,90,0.00,,,0.00,,2013-03-29 10:12:00,
2013-03-29 06:23:00,28.0,25.0,30.27,North,0,0.0,0.0,90,0.00,,,0.00,,2013-03-29 10:23:00,
2013-03-29 06:33:00,28.0,26.0,30.27,North,0,0.0,0.0,91,0.00,,,0.00,,2013-03-29 10:33:00,
2013-03-29 06:42:00,28.0,26.0,30.27,North,0,0.0,0.0,91,0.00,,,0.00,,2013-03-29 10:42:00,
2013-03-29 06:52:00,28.0,26.0,30.27,North,0,0.0,0.0,91,0.00,,,0.00,,2013-03-29 10:52:00,
2013-03-29 07:04:00,28.0,26.0,30.27,North,0,0.0,0.0,92,0.00,,,0.00,,2013-03-29 11:04:00,
2013-03-29 07:12:00,28.0,26.0,30.27,North,0,0.0,0.0,92,0.00,,,0.00,,2013-03-29 11:12:00,
2013-03-29 07:23:00,28.0,26.0,30.27,North,0,0.0,0.0,92,0.00,,,0.00,,2013-03-29 11:23:00,
2013-03-29 07:33:00,27.0,25.0,30.28,North,0,0.0,0.0,92,0.00,,,0.00,,2013-03-29 11:33:00,
2013-03-29 07:42:00,27.0,25.0,30.28,North,0,0.0,0.0,92,0.00,,,0.00,,2013-03-29 11:42:00,
2013-03-29 07:52:00,27.0,25.0,30.28,North,0,0.0,0.0,93,0.00,,,0.00,,2013-03-29 11:52:00,
2013-03-29 08:03:00,28.0,26.0,30.29,North,0,0.0,0.0,92,0.00,,,0.00,,2013-03-29 12:03:00,
2013-03-29 08:12:00,28.0,26.0,30.29,North,0,0.0,0.0,92,0.00,,,0.00,,2013-03-29 12:12:00,
2013-03-29 08:22:00,28.0,26.0,30.29,North,0,0.0,0.0,93,0.00,,,0.00,,2013-03-29 12:22:00,
2013-03-29 08:32:00,29.0,27.0,30.29,North,0,0.0,0.0,93,0.00,,,0.00,,2013-03-29 12:32:00,
2013-03-29 08:42:00,29.0,27.0,30.29,North,0,0.0,0.0,93,0.00,,,0.00,,2013-03-29 12:42:00,
2013-03-29 08:52:00,30.0,28.0,30.29,North,0,0.0,0.0,93,0.00,,,0.00,,2013-03-29 12:52:00,
2013-03-29 09:03:00,32.0,30.0,30.30,North,0,0.0,0.0,92,0.00,,,0.00,,2013-03-29 13:03:00,
2013-03-29 09:12:00,32.0,30.0,30.30,North,0,0.0,0.0,92,0.00,,,0.00,,2013-03-29 13:12:00,
2013-03-29 09:22:00,34.0,31.0,30.29,North,0,0.0,0.0,90,0.00,,,0.00,,2013-03-29 13:22:00,
2013-03-29 09:32:00,40.0,33.0,30.29,North,0,0.0,0.0,76,0.00,,,0.00,,2013-03-29 13:32:00,
2013-03-29 09:42:00,40.0,33.0,30.29,North,0,0.0,0.0,76,0.00,,,0.00,,2013-03-29 13:42:00,
2013-03-29 09:52:00,44.0,32.0,30.29,North,0,0.0,5.0,63,0.00,,,0.00,,2013-03-29 13:52:00,
2013-03-29 10:03:00,46.0,33.0,30.29,North,0,0.0,2.0,60,0.00,,,0.00,,2013-03-29 14:03:00,
2013-03-29 10:12:00,46.0,33.0,30.29,North,0,0.0,2.0,60,0.00,,,0.00,,2013-03-29 14:12:00,
2013-03-29 10:22:00,48.0,32.0,30.29,North,0,0.0,3.0,53,0.00,,,0.00,,2013-03-29 14:22:00,
2013-03-29 10:33:00,51.0,30.0,30.28,North,0,0.0,7.0,45,0.00,,,0.00,,2013-03-29 14:33:00,
2013-03-29 10:42:00,51.0,30.0,30.28,North,0,0.0,7.0,45,0.00,,,0.00,,2013-03-29 14:42:00,
2013-03-29 10:52:00,52.0,32.0,30.28,SSE,160,3.0,5.0,46,0.00,,,0.00,,2013-03-29 14:52:00,
2013-03-29 11:02:00,53.0,32.0,30.28,South,182,1.0,6.0,44,0.00,,,0.00,,2013-03-29 15:02:00,
2013-03-29 11:12:00,53.0,32.0,30.28,South,182,1.0,6.0,44,0.00,,,0.00,,2013-03-29 15:12:00,
2013-03-29 11:22:00,53.0,29.0,30.28,WSW,249,3.0,7.0,40,0.00,,,0.00,,2013-03-29 15:22:00,
2013-03-29 11:33:00,54.0,28.0,30.27,West,268,2.0,6.0,37,0.00,,,0.00,,2013-03-29 15:33:00,
2013-03-29 11:43:00,54.0,28.0,30.27,West,268,2.0,6.0,37,0.00,,,0.00,,2013-03-29 15:43:00,
2013-03-29 11:52:00,54.0,28.0,30.27,North,4,1.0,11.0,36,0.00,,,0.00,,2013-03-29 15:52:00,
2013-03-29 12:03:00,54.0,28.0,30.27,West,280,2.0,8.0,36,0.00,,,0.00,,2013-03-29 16:03:00,
2013-03-29 12:13:00,54.0,28.0,30.27,West,280,2.0,8.0,36,0.00,,,0.00,,2013-03-29 16:13:00,
2013-03-29 12:23:00,55.0,29.0,30.27,North,0,0.0,9.0,36,0.00,,,0.00,,2013-03-29 16:23:00,
2013-03-29 12:33:00,55.0,27.0,30.27,North,1,2.0,5.0,34,0.00,,,0.00,,2013-03-29 16:33:00,
2013-03-29 12:42:00,55.0,27.0,30.27,North,1,2.0,5.0,34,0.00,,,0.00,,2013-03-29 16:42:00,
2013-03-29 12:53:00,55.0,27.0,30.25,North,358,4.0,9.0,34,0.00,,,0.00,,2013-03-29 16:53:00,
2013-03-29 13:03:00,55.0,30.0,30.24,North,0,0.0,5.0,38,0.00,,,0.00,,2013-03-29 17:03:00,
2013-03-29 13:12:00,55.0,30.0,30.24,North,0,0.0,5.0,38,0.00,,,0.00,,2013-03-29 17:12:00,
2013-03-29 13:23:00,56.0,28.0,30.23,WNW,301,1.0,5.0,34,0.00,,,0.00,,2013-03-29 17:23:00,
2013-03-29 13:33:00,57.0,28.0,30.23,North,354,3.0,9.0,33,0.00,,,0.00,,2013-03-29 17:33:00,
2013-03-29 13:43:00,57.0,28.0,30.23,North,354,3.0,9.0,33,0.00,,,0.00,,2013-03-29 17:43:00,
2013-03-29 13:53:00,58.0,29.0,30.22,South,175,2.0,7.0,33,0.00,,,0.00,,2013-03-29 17:53:00,
2013-03-29 14:02:00,57.0,28.0,30.22,South,181,1.0,5.0,33,0.00,,,0.00,,2013-03-29 18:02:00,
2013-03-29 14:12:00,57.0,28.0,30.22,South,181,1.0,5.0,33,0.00,,,0.00,,2013-03-29 18:12:00,
2013-03-29 14:23:00,58.0,27.0,30.20,NW,307,1.0,8.0,30,0.00,,,0.00,,2013-03-29 18:23:00,
2013-03-29 14:32:00,58.0,28.0,30.20,NNW,341,2.0,6.0,31,0.00,,,0.00,,2013-03-29 18:32:00,
2013-03-29 14:43:00,58.0,28.0,30.20,NNW,341,2.0,6.0,31,0.00,,,0.00,,2013-03-29 18:43:00,
2013-03-29 14:53:00,58.0,27.0,30.19,NNW,327,1.0,8.0,30,0.00,,,0.00,,2013-03-29 18:53:00,
2013-03-29 15:02:00,59.0,28.0,30.18,NNE,27,1.0,7.0,30,0.00,,,0.00,,2013-03-29 19:02:00,
2013-03-29 15:12:00,59.0,27.0,30.17,NNW,348,4.0,6.0,29,0.00,,,0.00,,2013-03-29 19:12:00,
2013-03-29 15:23:00,59.0,27.0,30.17,NNW,348,4.0,6.0,29,0.00,,,0.00,,2013-03-29 19:23:00,
2013-03-29 15:33:00,60.0,29.0,30.16,SSE,158,2.0,6.0,31,0.00,,,0.00,,2013-03-29 19:33:00,
2013-03-29 15:42:00,60.0,29.0,30.16,SSE,158,2.0,6.0,31,0.00,,,0.00,,2013-03-29 19:42:00,
2013-03-29 15:52:00,59.0,27.0,30.16,North,2,3.0,6.0,29,0.00,,,0.00,,2013-03-29 19:52:00,
2013-03-29 16:03:00,59.0,28.0,30.16,NW,306,2.0,8.0,30,0.00,,,0.00,,2013-03-29 20:03:00,
2013-03-29 16:12:00,59.0,28.0,30.16,NW,306,2.0,8.0,30,0.00,,,0.00,,2013-03-29 20:12:00,
2013-03-29 16:22:00,60.0,28.0,30.15,North,0,0.0,7.0,29,0.00,,,0.00,,2013-03-29 20:22:00,
2013-03-29 16:33:00,60.0,28.0,30.15,South,177,2.0,6.0,30,0.00,,,0.00,,2013-03-29 20:33:00,
2013-03-29 16:42:00,60.0,28.0,30.15,South,177,2.0,6.0,30,0.00,,,0.00,,2013-03-29 20:42:00,
2013-03-29 16:52:00,61.0,27.0,30.14,NW,307,3.0,7.0,27,0.00,,,0.00,,2013-03-29 20:52:00,
2013-03-29 17:02:00,60.0,27.0,30.14,South,182,4.0,8.0,28,0.00,,,0.00,,2013-03-29 21:02:00,
2013-03-29 17:12:00,60.0,27.0,30.14,South,182,4.0,8.0,28,0.00,,,0.00,,2013-03-29 21:12:00,
2013-03-29 17:22:00,61.0,27.0,30.14,WNW,290,2.0,7.0,27,0.00,,,0.00,,2013-03-29 21:22:00,
2013-03-29 17:33:00,60.0,26.0,30.14,NNW,335,2.0,6.0,27,0.00,,,0.00,,2013-03-29 21:33:00,
2013-03-29 17:43:00,60.0,26.0,30.14,NNW,335,2.0,6.0,27,0.00,,,0.00,,2013-03-29 21:43:00,
2013-03-29 17:53:00,60.0,27.0,30.14,SSE,157,1.0,9.0,28,0.00,,,0.00,,2013-03-29 21:53:00,
2013-03-29 18:03:00,60.0,27.0,30.14,SSE,157,1.0,9.0,28,0.00,,,0.00,,2013-03-29 22:03:00,
2013-03-29 18:13:00,60.0,27.0,30.14,SSE,157,1.0,9.0,28,0.00,,,0.00,,2013-03-29 22:13:00,
2013-03-29 18:23:00,59.0,28.0,30.14,SSE,165,2.0,6.0,30,0.00,,,0.00,,2013-03-29 22:23:00,
2013-03-29 18:34:00,58.0,27.0,30.14,North,0,0.0,9.0,30,0.00,,,0.00,,2013-03-29 22:34:00,
2013-03-29 18:43:00,58.0,27.0,30.14,North,0,0.0,9.0,30,0.00,,,0.00,,2013-03-29 22:43:00,
2013-03-29 18:54:00,58.0,28.0,30.14,North,0,0.0,5.0,31,0.00,,,0.00,,2013-03-29 22:54:00,
2013-03-29 19:03:00,57.0,27.0,30.14,SSW,207,1.0,6.0,31,0.00,,,0.00,,2013-03-29 23:03:00,
2013-03-29 19:12:00,57.0,27.0,30.14,SSW,207,1.0,6.0,31,0.00,,,0.00,,2013-03-29 23:12:00,
2013-03-29 19:22:00,56.0,27.0,30.14,North,0,0.0,3.0,33,0.00,,,0.00,,2013-03-29 23:22:00,
2013-03-29 19:32:00,55.0,29.0,30.14,North,0,0.0,2.0,36,0.00,,,0.00,,2013-03-29 23:32:00,
2013-03-29 19:42:00,55.0,29.0,30.14,North,0,0.0,2.0,36,0.00,,,0.00,,2013-03-29 23:42:00,
2013-03-29 19:53:00,54.0,29.0,30.14,North,0,0.0,0.0,38,0.00,,,0.00,,2013-03-29 23:53:00,
2013-03-29 20:03:00,53.0,30.0,30.14,North,0,0.0,0.0,41,0.00,,,0.00,,2013-03-30 00:03:00,
2013-03-29 20:12:00,53.0,30.0,30.14,North,0,0.0,0.0,41,0.00,,,0.00,,2013-03-30 00:12:00,
2013-03-29 20:22:00,50.0,32.0,30.14,North,0,0.0,0.0,49,0.00,,,0.00,,2013-03-30 00:22:00,
2013-03-29 20:32:00,48.0,31.0,30.15,North,0,0.0,0.0,52,0.00,,,0.00,,2013-03-30 00:32:00,
2013-03-29 20:43:00,48.0,31.0,30.15,North,0,0.0,0.0,52,0.00,,,0.00,,2013-03-30 00:43:00,
2013-03-29 20:52:00,47.0,33.0,30.15,North,0,0.0,0.0,57,0.00,,,0.00,,2013-03-30 00:52:00,
2013-03-29 21:03:00,45.0,32.0,30.15,North,0,0.0,0.0,60,0.00,,,0.00,,2013-03-30 01:03:00,
2013-03-29 21:12:00,45.0,32.0,30.15,North,0,0.0,0.0,60,0.00,,,0.00,,2013-03-30 01:12:00,
2013-03-29 21:22:00,44.0,32.0,30.16,North,0,0.0,0.0,63,0.00,,,0.00,,2013-03-30 01:22:00,
2013-03-29 21:33:00,43.0,32.0,30.16,North,0,0.0,0.0,65,0.00,,,0.00,,2013-03-30 01:33:00,
2013-03-29 21:43:00,43.0,32.0,30.16,North,0,0.0,0.0,65,0.00,,,0.00,,2013-03-30 01:43:00,
2013-03-29 21:52:00,43.0,32.0,30.16,North,0,0.0,0.0,66,0.00,,,0.00,,2013-03-30 01:52:00,
2013-03-29 22:03:00,42.0,32.0,30.16,North,0,0.0,0.0,67,0.00,,,0.00,,2013-03-30 02:03:00,
2013-03-29 22:12:00,42.0,32.0,30.16,North,0,0.0,0.0,67,0.00,,,0.00,,2013-03-30 02:12:00,
2013-03-29 22:22:00,41.0,33.0,30.17,North,0,0.0,0.0,72,0.00,,,0.00,,2013-03-30 02:22:00,
2013-03-29 22:33:00,41.0,33.0,30.17,North,0,0.0,0.0,72,0.00,,,0.00,,2013-03-30 02:33:00,
2013-03-29 22:43:00,41.0,33.0,30.17,North,0,0.0,0.0,72,0.00,,,0.00,,2013-03-30 02:43:00,
2013-03-29 22:53:00,40.0,32.0,30.17,North,0,0.0,0.0,74,0.00,,,0.00,,2013-03-30 02:53:00,
2013-03-29 23:03:00,40.0,32.0,30.17,North,0,0.0,0.0,74,0.00,,,0.00,,2013-03-30 03:03:00,
2013-03-29 23:12:00,39.0,32.0,30.17,North,0,0.0,0.0,77,0.00,,,0.00,,2013-03-30 03:12:00,
2013-03-29 23:22:00,39.0,32.0,30.17,North,0,0.0,0.0,77,0.00,,,0.00,,2013-03-30 03:22:00,
2013-03-29 23:33:00,38.0,31.0,30.18,North,0,0.0,0.0,77,0.00,,,0.00,,2013-03-30 03:33:00,
2013-03-29 23:43:00,38.0,31.0,30.18,North,0,0.0,0.0,77,0.00,,,0.00,,2013-03-30 03:43:00,
2013-03-29 23:53:00,37.0,30.0,30.18,North,0,0.0,0.0,77,0.00,,,0.00,,2013-03-30 03:53:00,